Location: Tamazert
(32.6352°N, 5.2072°W)
Time: 18:31:37
(UTC+00:00)

Courier 1B - Pass Details

Date: 04 October 2022
Orbit: 962 x 1209 km, 28.3° (Epoch: 27 November)

Event Time Altitude Azimuth Distance (km) Brightness Sun altitude
Rises 19:39:55 0° 268° (W) 3,785 12.0 -21.5°
Reaches altitude 10° 19:43:25 10° 252° (WSW) 2,788 10.8 -22.2°
Maximum altitude 19:48:06 20° 208° (SSW) 2,099 9.4 -23.2°
Enters shadow 19:51:52 13° 168° (SSE) 2,520 9.4 -23.9°
